Miscellaneous Local Product
Issued by NWS Hastings, NE

Home | Current Version | Previous Version | Graphics & Text | Print | Product List | Glossary On
Versions: 1 2 3 4 5 6 7 8 9 10 11 12 13 14 15 16 17 18 19 20 21 22 23 24 25 26 27 28 29 30 31 32 33 34 35 36 37 38 39 40 41 42 43 44 45 46 47 48 49 50
000
AXUS43 KGID 170102
MISGRI

GID CWA HOURLY WEATHER ROUNDUP
NATIONAL WEATHER SERVICE HASTINGS NE
800 PM CDT WED AUG 16 2017

NOTE: "FAIR" INDICATES FEW OR NO CLOUDS BELOW 12,000 FEET WITH NO
SIGNIFICANT WEATHER AND/OR OBSTRUCTIONS TO VISIBILITY.

...SOUTH CENTRAL NEBRASKA...

CITY           SKY/WX    TMP DP  RH WIND       PRES   REMARKS
GRAND ISLAND   MOCLDY    68  66  93 NW13      29.90R
HASTINGS       MOCLDY    70  63  78 NW13      29.90R
KEARNEY        CLOUDY    69  62  78 NW16      29.93R
ORD            CLEAR     67  60  78 NW10      29.89R
YORK           CLEAR     70  64  83 NW9       29.85R
AURORA         CLEAR     69  66  89 NW9       29.88R
LEXINGTON      PTCLDY    69  60  72 NW8       29.96R
HOLDREGE       PTCLDY    69  62  79 NW8       29.93S
HEBRON         PTCLDY    73  64  72 NW6       29.85S

...NEBRASKA PANHANDLE...

CITY           SKY/WX    TMP DP  RH WIND       PRES   REMARKS
CHADRON        CLEAR     75  49  39 SE6       30.00S
ALLIANCE       CLEAR     72  49  44 N5        30.04S
SCOTTSBLUFF    CLEAR     74  50  42 E5        30.05S
SIDNEY         CLEAR     71  50  47 NE13      30.09R

...WESTERN AND NORTH CENTRAL NEBRASKA...

CITY           SKY/WX    TMP DP  RH WIND       PRES   REMARKS
VALENTINE      CLEAR     73  51  46 N10       29.94S
AINSWORTH      CLEAR     69  59  71 NW9       29.93R
ONEILL         CLOUDY    65  63  93 NW13G18   29.89S
BROKEN BOW     CLEAR     69  62  78 W7        29.94R
IMPERIAL       CLEAR     72  56  57 N9        30.02R
NORTH PLATTE   CLEAR     70  57  63 NW6       29.98R
MCCOOK         CLEAR     72  61  68 N8        29.97R

...EASTERN NEBRASKA...

CITY           SKY/WX    TMP DP  RH WIND       PRES   REMARKS
NORFOLK        CLOUDY    66  61  84 NW13      29.80F
SO SIOUX CITY  LGT RAIN  70  66  87 NW10      29.75F FOG
TEKAMAH        CLEAR     72  64  76 W6        29.77R
COLUMBUS       PTCLDY    69  64  84 NW16G23   29.84R
ALBION         CLOUDY    69  62  78 NW12G17   29.86R
OMAHA EPPLEY   PTCLDY    75  65  70 NW8       29.78R
OFFUTT AFB     CLEAR     77  64  64 NW10      29.78R
MILLARD        CLEAR     76  67  72 NW6       29.79S
LINCOLN        MOCLDY    76  66  71 N10       29.81R
NEBRASKA CITY  CLOUDY    78  68  71 NW8       29.81R
BEATRICE       MOCLDY    78  66  66 W6        29.82S
FALLS CITY     CLOUDY    79  66  64 NW5       29.79S

...NORTHERN KANSAS...

CITY           SKY/WX    TMP DP  RH WIND       PRES   REMARKS
GOODLAND       CLEAR     73  55  53 N12       30.03R
HILL CITY      CLEAR     74  61  63 N13       29.94R
NORTON         CLEAR     70  55  60 NW9       29.94
PHILLIPSBURG   CLEAR     73  61  64 NW6       29.91S
SMITH CENTER   PTCLDY    68  59  73 N10       29.89S
HAYS           CLEAR     80  62  54 NW9       29.89S
RUSSELL        CLEAR     80  61  52 NW9       29.86S
CONCORDIA      CLEAR     78  64  61 NW8       29.84S
SALINA         CLEAR     83  63  50 NW7       29.84R
TOPEKA         CLOUDY    80  70  71 CALM      29.80S



USA.gov is the U.S. government's official web portal to all federal, state and local government web resources and services.